[[{"header":{"parameterUnit":"m.s-1","parameterCategory":1,"la1":30.2991,"la2":30.254,"lo1":-89.0895,"lo2":-89.0444,"dy":0.0017,"dx":0.0017,"nx":28,"ny":28,"refTime":"2024-06-28T03:00:00:Z","depth":0,"parameterNumber":2,"parameterNumberName":"U-component_of_WINDS"},"data":[0,0,0,0,0,0,0,0,0,0,0,0,0,0,0,0,0,0,0,0,0,0,0,0,0,0,0,0,0,0,0,0,0,0,0,0,0,0,0,0,0,0,0,0,0,0,0,0,0,0,0,0,0,0,0,0,0,0,0.1597,0.1598,0,0.1685,0.1686,0.1687,0.1714,0.1714,0.1714,0.1713,0.1805,0.1808,0.1811,0,0,0,0,0,0,0,0,0,0,0,0,0,0.1452,0.1455,0.1597,0.1598,0.1599,0.1685,0.1686,0.1687,0.1715,0.1714,0.1714,0.1713,0.1804,0.1808,0.1811,0,0,0,0,0,0,0,0,0,0,0,0,0,0.1525,0.1456,0.1597,0.1623,0.1626,0.1685,0.1686,0.1688,0.1715,0.1714,0.1713,0.1713,0.1803,0.1807,0.1812,0.1851,0,0,0.1825,0.1827,0,0,0,0,0,0,0,0,0.1521,0.153,0.1618,0.1621,0.1625,0.1688,0.1669,0.1742,0.1715,0.1681,0.1713,0.1712,0.1767,0.1774,0.1792,0.1855,0.1859,0.1825,0.1828,0.183,0.1831,0,0,0,0,0,0,0,0.1516,0.1527,0.1632,0.1619,0.1623,0.163,0.164,0.1683,0.1727,0.1684,0.1686,0.1696,0.1769,0.1788,0.1795,0.186,0.1825,0.1829,0.1831,0.1833,0.1958,0.1959,0,0,0,0,0,0,0.1506,0.1522,0.1629,0.1634,0.157,0.1633,0.1644,0.1668,0.1726,0.1734,0.1697,0.1697,0.1781,0.179,0.1798,0.1846,0.183,0.1834,0.1836,0.1957,0.1958,0.1959,0,0,0,0,0,0,0.1503,0.1515,0.1625,0.1579,0.1593,0.1637,0.1664,0.1671,0.169,0.1736,0.1744,0.1708,0.1781,0.1792,0.1837,0.185,0.1835,0.1839,0.1956,0.1957,0.1959,0.1944,0,0,0,0,0,0,0.1499,0.1514,0.153,0.1579,0.1596,0.1663,0.1664,0.1673,0.1697,0.1698,0.1749,0.1757,0.1781,0.183,0.1841,0.1856,0.1843,0.1955,0.1957,0.1958,0.1944,0.1945,0.1946,0,0,0,0,0,0.1493,0.1523,0.153,0.1543,0.1616,0.1664,0.1673,0.1701,0.1698,0.1714,0.1743,0.1755,0.1847,0.1835,0.1847,0.1863,0.1955,0.1956,0.1958,0.1943,0.1945,0.1946,0,0,0,0,0,0,0.1475,0.153,0.1539,0.1585,0.1619,0.1668,0.1689,0.1701,0.1737,0.1737,0.177,0.1781,0.1824,0.1848,0.1834,0.1903,0.1901,0.1905,0.1886,0.1887,0.1888,0.1882,0.1846,0,0,0,0,0,0.1476,0.151,0.1556,0.1593,0.1609,0.1646,0.1668,0.1685,0.1723,0.1737,0.177,0.1806,0.1842,0.1866,0.1903,0.1947,0.1958,0.1964,0.1965,0.1965,0.1969,0.1993,0.1996,0.1964,0.1964,0.1964,0,0,0.1479,0.1513,0.1533,0.159,0.1618,0.1652,0.1658,0.1694,0.172,0.1743,0.1787,0.1812,0.1854,0.1898,0.192,0.192,0.198,0.1968,0.1968,0.1971,0.1995,0.1998,0.2,0.1966,0.1965,0.1965,0,0,0.1502,0.1532,0.1564,0.1592,0.1635,0.1659,0.1667,0.1713,0.173,0.1775,0.1792,0.1823,0.1886,0.1915,0.1938,0.1969,0.1981,0.198,0.1985,0.2008,0.201,0.2012,0.2023,0.2026,0.1983,0.1983,0.1983,0,0.1501,0.1553,0.158,0.1615,0.1639,0.166,0.1693,0.1719,0.1772,0.1788,0.1787,0.1865,0.1895,0.1946,0.1953,0.1971,0.198,0.1975,0.2007,0.201,0.2013,0.2023,0.2027,0.1982,0.1982,0.1983,0.1983,0,0.1548,0.1584,0.1605,0.1654,0.168,0.1714,0.1746,0.177,0.1784,0.1808,0.1852,0.1888,0.1932,0.1945,0.1961,0.1998,0.1996,0.2001,0.2,0.2015,0.2025,0.2029,0.1982,0.1982,0.1982,0.1982,0,0,0.1564,0.1626,0.1633,0.1655,0.1702,0.173,0.1764,0.1806,0.1825,0.186,0.1889,0.194,0.1945,0.197,0.1989,0.2009,0.203,0.2011,0.2013,0.2013,0.2072,0.2067,0.2072,0.2038,0.2039,0.2039,0.2068,0,0.1592,0.1654,0.1678,0.1728,0.1761,0.178,0.181,0.1842,0.1865,0.1895,0.1921,0.1956,0.1959,0.1975,0.1995,0.2023,0.2042,0.2021,0.2065,0.2066,0.2054,0.2077,0.2074,0.2099,0.2072,0.2073,0.2073,0,0.1634,0.1668,0.1721,0.1763,0.1778,0.1804,0.1843,0.1872,0.1909,0.1923,0.1951,0.1968,0.2004,0.1999,0.2049,0.2034,0.2053,0.2069,0.2071,0.2076,0.2071,0.2083,0.2108,0.2111,0.208,0.2079,0.2079,0,0.1639,0.1698,0.1737,0.1755,0.1806,0.1823,0.1845,0.1881,0.1903,0.1937,0.1952,0.199,0.2011,0.204,0.2066,0.2061,0.2113,0.2111,0.2126,0.2125,0.2137,0.2136,0.2165,0.2149,0.2149,0.2149,0.2149,0,0.1669,0.17,0.174,0.1764,0.1799,0.1826,0.1861,0.1884,0.1915,0.1943,0.1963,0.1989,0.2022,0.2053,0.2074,0.2111,0.212,0.2133,0.2138,0.2131,0.213,0.2145,0.2144,0.215,0.215,0.215,0.2149,0,0.168,0.1708,0.1752,0.1795,0.1807,0.1831,0.1868,0.1891,0.1914,0.195,0.1959,0.1995,0.2032,0.2061,0.2109,0.2123,0.2162,0.2167,0.2149,0.2152,0.2165,0.2163,0.2205,0.2211,0.2191,0.2191,0.2191,0,0.1697,0.1722,0.1767,0.1787,0.1808,0.1841,0.1863,0.1891,0.1914,0.1956,0.1974,0.2012,0.2043,0.2101,0.2131,0.2167,0.2174,0.2186,0.218,0.2172,0.2174,0.2172,0.2174,0.2187,0.2187,0.2187,0.2187,0,0.1724,0.1736,0.1768,0.1805,0.1831,0.1861,0.1892,0.1907,0.194,0.1964,0.2001,0.2026,0.2074,0.2111,0.215,0.2172,0.2185,0.2188,0.2194,0.2187,0.2175,0.2181,0.2151,0.2188,0.2188,0.2188,0.2188,0.2188,0.1739,0.1761,0.1796,0.183,0.1856,0.1883,0.1907,0.1932,0.1963,0.2004,0.2018,0.2056,0.209,0.2144,0.2166,0.2196,0.2197,0.2205,0.2207,0.2208,0.2207,0.217,0.2203,0.2203,0.2203,0.2203,0.2203,0,0.1766,0.1789,0.182,0.1862,0.1889,0.1897,0.1931,0.1953,0.1986,0.2017,0.2047,0.2088,0.2124,0.2156,0.2193,0.221,0.2217,0.2219,0.2218,0.2223,0.2205,0.2196,0.2213,0.2213,0.2213,0.2213,0.2213,0.2213,0.1783,0.1821,0.1837,0.1886,0.1909,0.1946,0.1964,0.199,0.2014,0.206,0.2089,0.2109,0.214,0.2179,0.2211,0.222,0.2232,0.2233,0.2243,0.2225,0.2224,0.2223,0.2215,0.2235,0.2235,0.2258,0.2258,0.2259]},{"header":{"parameterUnit":"m.s-1","parameterCategory":1,"la1":30.2991,"la2":30.254,"lo1":-89.0895,"lo2":-89.0444,"dy":0.0017,"dx":0.0017,"nx":28,"ny":28,"refTime":"2024-06-28T03:00:00:Z","depth":0,"parameterNumber":3,"parameterNumberName":"V-component_of_WINDS"},"data":[0,0,0,0,0,0,0,0,0,0,0,0,0,0,0,0,0,0,0,0,0,0,0,0,0,0,0,0,0,0,0,0,0,0,0,0,0,0,0,0,0,0,0,0,0,0,0,0,0,0,0,0,0,0,0,0,0,0,5.4421,5.4421,0,5.4466,5.4467,5.4467,5.4401,5.4399,5.4397,5.4394,5.4434,5.4437,5.444,0,0,0,0,0,0,0,0,0,0,0,0,0,5.4271,5.4274,5.4421,5.4421,5.4422,5.4466,5.4467,5.4467,5.4402,5.4399,5.4396,5.4393,5.4433,5.4436,5.444,0,0,0,0,0,0,0,0,0,0,0,0,0,5.4328,5.4276,5.4421,5.4395,5.4393,5.4466,5.4467,5.4467,5.4402,5.4399,5.4395,5.4392,5.4431,5.4436,5.4441,5.4539,0,0,5.4455,5.4457,0,0,0,0,0,0,0,0,5.4325,5.4334,5.4398,5.4397,5.4395,5.4425,5.4428,5.4491,5.4403,5.4398,5.4394,5.439,5.4433,5.4437,5.4453,5.4541,5.4543,5.4456,5.4459,5.4461,5.4462,0,0,0,0,0,0,0,5.4321,5.4331,5.4438,5.4399,5.4397,5.4379,5.4383,5.444,5.4434,5.4399,5.4394,5.4401,5.4431,5.4449,5.4454,5.4543,5.4456,5.446,5.4463,5.4465,5.4714,5.4718,0,0,0,0,0,0,5.4321,5.4329,5.4437,5.444,5.4351,5.4384,5.4389,5.4418,5.4433,5.4433,5.4403,5.4397,5.4442,5.4448,5.4455,5.4571,5.4461,5.4465,5.4468,5.471,5.4715,5.4719,0,0,0,0,0,0,5.4318,5.4332,5.4435,5.4383,5.4395,5.4391,5.4424,5.4421,5.4438,5.4437,5.4435,5.4423,5.444,5.4448,5.4519,5.4571,5.4467,5.4472,5.4706,5.4712,5.4717,5.4804,0,0,0,0,0,0,5.4314,5.4331,5.437,5.4385,5.4398,5.4501,5.4427,5.4424,5.4448,5.444,5.4455,5.4454,5.4438,5.4512,5.4524,5.4576,5.4475,5.4701,5.4708,5.4715,5.4796,5.4812,5.4825,0,0,0,0,0,5.4309,5.4391,5.4372,5.4385,5.4447,5.4504,5.4511,5.4493,5.4452,5.449,5.449,5.4453,5.4564,5.452,5.4533,5.4587,5.4698,5.4706,5.4715,5.479,5.4809,5.4825,0,0,0,0,0,0,5.4379,5.4392,5.4371,5.4461,5.4482,5.4493,5.454,5.4514,5.4545,5.4537,5.4511,5.4515,5.4591,5.4596,5.4547,5.4683,5.4624,5.4635,5.4677,5.4695,5.4709,5.4705,5.4479,0,0,0,0,0,5.4405,5.4453,5.4461,5.4539,5.4551,5.4544,5.4568,5.4553,5.4573,5.4581,5.4585,5.4605,5.4644,5.467,5.4705,5.4798,5.4799,5.4841,5.4855,5.4867,5.4877,5.4926,5.4944,5.4747,5.4747,5.4746,0,0,5.4459,5.4472,5.4503,5.4553,5.4568,5.4616,5.4552,5.4605,5.464,5.4588,5.4656,5.4661,5.468,5.4762,5.4799,5.4769,5.4932,5.4878,5.4888,5.4891,5.4936,5.4955,5.4972,5.4752,5.4751,5.475,0,0,5.4581,5.4597,5.4663,5.4681,5.4705,5.47,5.4716,5.4732,5.4734,5.4802,5.4764,5.4805,5.4873,5.4888,5.4905,5.5036,5.5003,5.5048,5.5123,5.5171,5.5186,5.52,5.5246,5.5263,5.5058,5.5058,5.5058,0,5.4643,5.4717,5.47,5.4757,5.478,5.4739,5.4805,5.4821,5.4855,5.4871,5.4838,5.4924,5.4934,5.5019,5.5051,5.5066,5.5083,5.5046,5.5186,5.5199,5.5212,5.5255,5.5273,5.5064,5.5063,5.5062,5.5062,0,5.4793,5.4844,5.4895,5.4932,5.4961,5.5022,5.5013,5.5043,5.5026,5.5024,5.5094,5.5106,5.5143,5.5163,5.5145,5.5246,5.5227,5.5191,5.513,5.5236,5.5276,5.5293,5.5071,5.5069,5.5068,5.5066,0,0,5.4957,5.4987,5.5006,5.5023,5.5048,5.5086,5.5145,5.5185,5.5212,5.5237,5.5285,5.5344,5.5312,5.5331,5.5315,5.5357,5.546,5.5315,5.5315,5.5341,5.5571,5.5597,5.5617,5.5439,5.5442,5.5445,5.5569,0,5.5079,5.5185,5.5172,5.5272,5.5319,5.5281,5.5333,5.5353,5.5353,5.5391,5.539,5.5433,5.5387,5.5399,5.5439,5.5439,5.5505,5.543,5.5482,5.5484,5.5477,5.5638,5.5666,5.5782,5.5584,5.5587,5.5589,0,5.5234,5.5269,5.5375,5.5394,5.5413,5.546,5.5496,5.5534,5.5555,5.5552,5.5576,5.5553,5.561,5.5551,5.5629,5.5578,5.5598,5.5602,5.5606,5.5609,5.5542,5.5644,5.5819,5.5836,5.5614,5.5612,5.561,0,5.5343,5.5416,5.5489,5.5504,5.5529,5.5563,5.5574,5.5593,5.5618,5.5648,5.5664,5.57,5.5719,5.5747,5.5734,5.5692,5.5815,5.5754,5.5812,5.5813,5.5838,5.5836,5.6018,5.5854,5.5854,5.5853,5.5853,0,5.548,5.5546,5.5538,5.5583,5.5655,5.564,5.5711,5.5717,5.5735,5.5778,5.5747,5.5788,5.5769,5.5808,5.5798,5.5864,5.5873,5.5871,5.5867,5.5874,5.5874,5.5885,5.5876,5.5858,5.5857,5.5856,5.5855,0,5.5613,5.5611,5.5688,5.5706,5.5712,5.5765,5.5779,5.582,5.5819,5.5875,5.5887,5.5884,5.5929,5.592,5.5968,5.5961,5.6044,5.603,5.6038,5.6034,5.6093,5.6087,5.6287,5.6312,5.6133,5.6135,5.6136,0,5.5699,5.575,5.5775,5.5803,5.5818,5.5864,5.5891,5.5877,5.5905,5.5935,5.5972,5.6015,5.6049,5.6122,5.6123,5.616,5.6146,5.6214,5.6151,5.6156,5.6146,5.6143,5.6148,5.6226,5.6228,5.6229,5.6231,0,5.5853,5.585,5.5891,5.5933,5.5966,5.5997,5.6024,5.6049,5.6038,5.6071,5.6118,5.6144,5.6196,5.6238,5.6273,5.6281,5.6254,5.6251,5.6266,5.6272,5.6274,5.6273,5.607,5.6246,5.6244,5.6243,5.6242,5.6242,5.5964,5.6008,5.6033,5.608,5.61,5.6127,5.6167,5.6173,5.6213,5.6255,5.6244,5.6298,5.6318,5.6363,5.6376,5.6416,5.639,5.6413,5.6418,5.6424,5.6431,5.6269,5.6422,5.6422,5.6421,5.6421,5.6421,0,5.6116,5.6131,5.6175,5.6216,5.6253,5.6228,5.6257,5.6289,5.6337,5.636,5.6395,5.6449,5.649,5.6496,5.6535,5.6566,5.6554,5.6576,5.6573,5.6576,5.6452,5.6434,5.6585,5.6585,5.6585,5.6585,5.6585,5.6585,5.6199,5.6271,5.6272,5.6353,5.6367,5.6422,5.6441,5.6465,5.6484,5.6547,5.6582,5.6587,5.6603,5.6643,5.6679,5.668,5.6695,5.6722,5.6717,5.6601,5.6584,5.6569,5.6552,5.6725,5.6726,5.6838,5.6839,5.6839]}]]